Theta_e
303 302 303 302 302 302 301 301 301 301 301 301 302 303 303 303 303 303 303 303 303 304 304 304 306 307 307 308 309 306 307 305 304 310 319 330 327 326
303 303 303 302 301 301 301 301 301 301 302 302 303 303 303 303 303 302 302 302 303 303 304 304 306 307 307 308 309 307 305 304 304 317 321 323 327 327
303 302 302 301 301 300 300 300 301 302 303 303 303 303 302 302 302 302 303 303 303 303 304 304 305 306 306 307 307 307 305 305 306 309 320 323 328 327
302 301 301 301 300 300 300 301 302 303 303 302 302 302 302 301 302 302 301 303 304 303 304 305 306 306 306 306 306 307 306 305 305 305 316 319 328 326
302 301 301 301 300 300 301 302 302 302 302 302 302 302 302 302 302 301 301 302 303 303 305 305 306 307 307 306 306 307 307 308 309 307 311 318 327 325
301 301 300 300 300 301 302 302 302 302 301 301 301 300 301 301 302 302 304 303 303 304 305 305 307 307 306 306 307 306 307 306 307 308 310 318 326 325
301 300 299 300 301 302 302 301 301 301 301 300 301 300 301 301 302 303 303 303 304 304 304 305 307 307 306 307 307 307 306 306 305 309 314 318 325 326
301 300 300 301 302 302 301 301 301 301 300 300 301 300 301 302 302 302 303 303 304 304 305 305 308 307 307 306 306 306 306 305 306 310 314 324 325 325
300 301 301 301 301 300 300 301 300 301 301 302 301 302 302 302 302 303 304 305 305 305 305 305 307 308 307 307 307 304 303 304 305 312 317 325 325 317
301 301 301 301 301 300 300 300 301 301 301 301 302 302 302 302 304 304 304 304 306 307 307 307 309 309 308 307 306 307 313 312 311 316 321 326 321 307
301 301 301 301 301 300 300 300 301 301 300 301 301 301 303 303 304 304 305 308 310 309 309 309 310 309 309 308 312 315 314 313 316 322 326 322 307 306
301 300 300 300 299 298 299 301 301 300 300 298 300 302 303 305 307 308 311 311 312 310 309 310 311 309 312 317 320 316 317 316 325 325 321 307 306 306
300 300 301 301 300 299 298 300 300 299 297 301 301 303 304 306 312 314 313 312 309 310 315 312 313 314 319 318 318 320 323 325 324 319 306 306 306 307
300 300 302 301 300 299 300 298 298 297 301 300 302 303 304 307 313 314 315 314 314 315 318 315 314 318 319 318 317 325 325 324 316 305 305 305 306 307
300 301 301 301 299 298 300 299 298 300 300 301 302 303 304 307 312 315 315 316 318 320 321 315 317 319 318 318 317 322 322 313 306 305 305 307 309 308
296 297 298 299 299 299 299 299 299 300 300 300 302 303 305 309 313 316 318 318 320 319 321 318 315 320 319 320 319 318 316 307 304 305 306 309 309 309
300 300 300 300 300 300 299 299 299 299 299 300 301 304 304 309 313 316 318 318 319 319 319 321 320 320 321 321 320 319 309 306 305 305 306 308 308 309
299 299 299 299 299 299 299 298 298 299 298 300 301 303 303 307 311 316 318 319 320 318 319 319 320 321 315 314 317 316 309 308 306 306 307 309 309 310
297 298 299 299 299 299 298 298 298 298 298 300 301 303 303 306 310 314 316 317 319 318 319 320 319 317 317 314 312 311 310 310 309 308 309 309 311 310
297 298 298 298 298 298 297 297 297 297 297 299 300 302 303 304 309 312 315 316 318 317 317 317 320 320 322 316 311 310 309 309 310 311 310 310 311 311
298 297 297 297 297 297 297 296 296 296 298 299 300 301 303 303 307 310 313 316 318 318 317 317 319 321 321 319 317 313 310 309 310 312 313 313 314 313
297 297 297 297 297 297 297 296 297 298 298 299 299 300 302 303 305 309 312 314 315 318 319 319 321 321 322 321 319 317 314 310 309 311 313 314 315 315
297 296 296 296 296 296 296 296 297 298 298 298 299 299 300 302 304 306 310 313 316 316 318 320 320 320 321 322 319 317 315 314 313 312 312 312 313 314
Wind_Speed
17 17 16 14 13 14 15 16 19 25 23 21 23 22 23 26 27 30 31 33 32 32 32 33 31 29 29 28 26 27 29 24 24 43 42 31 24 29
17 15 14 13 13 16 18 18 19 23 28 23 24 25 25 28 29 31 32 34 35 33 30 34 33 31 31 31 29 27 30 29 18 41 41 17 28 33
18 17 16 15 17 17 17 18 20 21 27 28 27 28 29 31 31 31 31 33 35 32 34 33 34 35 32 30 30 29 32 32 31 30 56 28 30 35
19 17 16 14 17 17 17 18 20 21 25 31 30 29 29 32 32 34 33 31 32 39 37 36 35 33 31 32 33 31 28 27 27 26 61 31 34 34
18 17 16 16 17 16 17 19 21 22 25 29 34 31 32 31 32 34 35 34 36 42 35 35 35 31 33 34 35 30 29 28 19 31 60 41 37 36
18 18 16 16 16 16 17 19 19 22 26 28 30 34 29 34 32 34 33 36 43 42 36 38 33 33 32 33 32 31 30 30 27 34 55 46 41 38
18 16 16 16 16 18 18 19 19 22 25 29 29 34 33 34 31 35 42 48 47 42 43 36 29 29 28 29 33 32 37 35 29 51 54 32 44 39
18 16 14 16 17 16 17 19 20 22 25 27 30 34 38 37 43 45 46 47 47 43 29 35 26 30 25 28 26 32 39 32 39 50 43 47 43 37
15 14 13 13 17 15 16 17 19 19 23 29 34 35 37 41 49 53 49 46 44 47 43 40 26 29 26 24 26 30 34 35 44 56 40 48 41 36
14 14 15 14 14 15 15 17 19 20 24 26 29 34 40 45 45 47 48 45 43 37 28 30 22 26 22 25 29 38 27 34 56 50 52 46 40 35
14 14 14 13 13 13 13 18 21 23 23 24 31 33 34 40 37 36 34 31 26 19 15 21 19 20 21 28 25 33 39 52 44 54 50 43 38 32
13 12 15 16 14 13 14 16 22 24 27 32 31 33 38 36 30 23 22 23 13 12 9 14 15 18 11 20 30 45 51 48 57 48 44 41 36 32
11 10 10 13 16 14 14 16 20 26 27 25 31 36 38 34 18 14 14 11 15 17 2 12 20 23 17 36 42 57 64 56 47 42 41 37 32 28
10 8 8 14 17 15 15 18 20 22 19 26 28 36 37 30 18 14 20 13 15 18 8 13 22 22 37 36 44 56 50 44 44 43 38 34 29 24
10 11 16 17 16 13 11 19 18 16 21 24 28 34 33 27 23 17 14 12 10 7 17 33 28 43 40 36 47 58 51 45 45 44 39 34 29 25
14 13 11 9 11 11 12 14 14 14 20 20 26 31 30 23 21 18 14 10 15 16 33 32 33 34 40 43 55 52 51 46 43 41 38 33 29 25
9 7 6 9 7 8 11 14 14 13 18 21 25 29 29 22 18 20 12 11 20 24 37 35 29 37 46 52 50 49 46 45 43 40 36 32 27 24
10 6 7 7 8 8 9 13 14 13 16 19 23 24 27 21 18 15 8 6 22 22 39 38 48 44 42 37 40 49 45 46 40 36 32 30 28 23
11 6 6 7 7 8 8 10 13 13 15 16 20 22 26 20 15 15 6 6 22 23 23 21 37 46 46 37 32 39 44 43 39 37 31 28 27 24
9 6 6 6 6 6 8 9 12 12 13 14 17 19 23 21 15 13 7 3 19 22 23 15 26 38 49 43 30 28 30 42 39 36 30 26 24 23
4 5 6 5 6 7 8 10 10 12 10 13 17 16 18 20 15 10 6 2 8 26 30 25 32 43 36 37 39 29 26 33 31 31 32 26 25 23
7 7 7 6 7 8 8 8 9 10 10 11 17 17 15 18 17 10 5 6 8 19 25 28 27 31 34 32 40 36 31 30 30 29 26 26 27 23
7 7 6 6 7 7 7 6 7 8 11 10 15 17 16 16 16 12 8 8 10 14 19 25 26 31 39 35 37 38 36 32 31 28 25 22 15 14
Wind_Direction
227 230 232 242 252 258 262 269 275 286 288 290 291 287 286 284 283 283 284 285 285 283 283 282 280 279 278 269 264 258 249 252 251 220 243 212 230 220
220 225 233 241 252 258 264 267 269 274 283 287 289 290 290 291 290 288 286 285 282 283 284 285 279 276 275 270 264 256 250 242 241 211 233 244 209 221
222 226 233 243 254 261 264 265 270 274 281 287 289 291 292 290 291 289 290 289 284 281 287 289 279 278 278 263 260 254 252 240 238 217 221 250 202 217
221 229 240 248 259 267 271 272 274 279 282 289 292 294 289 292 289 291 292 289 282 288 291 283 276 276 271 261 259 252 251 240 239 226 220 238 205 217
221 226 238 248 258 264 267 272 276 278 283 287 292 293 296 295 295 291 290 286 281 300 290 293 289 274 263 256 251 247 240 225 234 236 215 229 208 217
220 229 239 250 259 263 268 273 278 283 286 290 288 294 295 296 297 293 290 287 294 302 296 295 282 278 260 245 239 235 223 214 207 222 214 225 204 216
224 232 251 260 257 256 265 272 278 284 285 293 295 298 300 301 295 294 292 299 301 301 295 298 280 273 251 238 229 222 205 211 225 207 206 227 206 212
223 235 247 260 268 271 275 277 280 284 287 293 295 295 298 295 298 298 295 292 288 296 279 288 283 267 246 231 221 212 204 213 222 202 201 195 204 206
225 239 248 255 263 273 280 283 287 286 288 293 294 296 296 295 299 302 297 292 287 286 282 280 277 249 241 230 212 207 206 216 211 197 208 195 201 199
226 236 247 254 263 269 277 286 291 294 298 298 297 294 292 299 300 298 295 292 291 292 277 263 254 245 234 230 205 199 201 207 189 195 194 193 193 187
230 241 249 258 267 273 280 291 303 303 306 299 291 302 304 305 305 306 302 302 295 288 243 232 234 213 202 203 209 189 183 183 190 187 182 187 181 175
232 245 264 281 286 266 282 295 299 308 302 312 318 312 321 324 327 328 332 321 289 284 228 217 214 187 183 141 166 176 177 191 176 174 179 176 171 171
228 242 257 271 281 289 291 293 299 306 319 322 318 327 332 337 337 338 328 305 293 275 294 197 184 169 140 153 143 161 161 159 164 170 171 168 169 171
223 240 259 264 271 285 290 298 306 319 327 319 332 335 337 341 345 339 340 295 293 299 311 163 170 157 155 134 132 152 150 157 163 163 163 164 166 167
224 238 243 252 274 291 304 298 319 326 315 328 334 337 337 342 347 355 341 343 345 21 149 157 160 156 148 144 142 147 153 158 164 161 162 162 161 162
243 259 274 278 290 299 312 311 309 322 319 331 335 338 342 345 352 360 15 359 96 93 147 163 184 163 155 152 147 148 159 156 163 164 163 161 163 163
213 220 253 279 298 290 295 303 314 328 326 337 336 341 346 346 354 5 14 359 117 135 139 146 162 166 173 162 151 160 160 160 166 167 166 163 163 163
230 236 253 269 280 285 293 303 314 329 326 338 334 344 346 348 351 12 23 122 126 131 146 150 158 165 141 144 157 164 167 168 165 168 171 166 164 166
226 223 252 266 267 276 292 300 311 325 332 340 330 345 349 350 351 10 34 104 161 140 122 146 155 155 151 142 154 173 169 169 167 171 173 174 170 169
223 213 235 248 252 269 294 303 300 319 335 335 332 344 350 355 349 358 18 81 154 161 146 154 179 175 167 160 140 163 178 170 172 172 169 173 175 178
209 210 219 225 247 268 286 303 322 336 345 335 325 339 350 356 348 343 359 207 182 166 163 174 180 177 169 169 162 160 173 185 183 181 175 177 180 180
200 214 212 226 250 267 287 306 328 329 341 330 322 335 341 355 351 328 319 187 191 197 177 171 169 188 181 180 173 172 168 178 192 194 190 191 184 188
198 206 210 231 256 270 281 302 313 320 325 329 322 326 331 343 351 329 294 217 180 208 194 187 173 177 183 191 186 177 175 177 187 190 190 198 193 197